User: anonymous   Login
Location: Unspecified
(0.0000°N, 0.0000°E)
Time: 09:43:34
(UTC+00:00)
Language:

AEROCUBE 2 - Orbit

View from above orbital plane
View from above orbital plane
View from above satellite
View from above satellite

Ground track
Ground track

The orbit is defined by the following mean orbital elements,

1 31133U          26104.20159067 +.00000000 +00000-0 +11367-3 0 00008
2 31133  98.4342  87.4088 0071732 162.6853 197.6821 14.66542708    06
Epoch (UTC): 14 April 2026 04:50:17
Eccentricity: 0.0071732
inclination: 98.4342°
perigee height: 622 km
apogee height: 723 km
right ascension of ascending node: 87.4088°
argument of perigee: 162.6853°
revolutions per day: 14.66542708
mean anomaly at epoch: 197.6821°

The dashed part of the orbit path shows where the satellite is in the earth's shadow,  

DLR